Zurück zum Katalog

SL-12 R/B(2)

AktivMEO
NORAD 23401·ROCKET BODY·🇷🇺 Russia

Gestartet Nov 20, 1994 von Baikonur Cosmodrome

Loading…

Nächste Überflüge (nächste 24 Stunden)

TLE

AktuellSource: Space-Track

Epoche: Sep 7, 2026, 10:22 UTC

1 23401U 94076F   26250.43263084  .00000029  00000-0  00000-0 0  9992
2 23401  64.9336  64.1929 0010961 287.9418  69.5546  2.13556086247969

Verfolge SL-12 R/B(2) in Echtzeit mit AllMySat

Download on the App Store